RH
38 35 34 35 34 34 33 34 36 37 42 51 53 61 67 69 68 69 70 74 79 84 87 91 87 84 76 83 79 63 65 70 76 78 81 81 77 72 65 53 32 21 19
46 43 44 44 38 35 32 34 38 50 54 55 56 68 73 76 75 75 78 80 81 80 84 81 80 79 80 80 78 73 75 66 66 75 76 85 87 82 77 71 57 33 21
46 53 55 50 40 47 43 44 45 53 56 58 68 73 76 76 80 83 82 82 78 78 76 76 76 73 73 77 74 80 76 69 68 68 80 92 98 92 81 82 74 58 33
38 50 63 61 56 58 57 53 54 57 59 64 72 77 83 85 84 83 82 78 81 78 78 78 75 75 79 82 72 77 81 69 63 68 73 77 89 96 98 89 89 76 62
46 71 83 82 85 72 66 65 63 65 71 78 84 84 83 83 83 78 82 80 78 78 74 74 74 79 80 80 78 75 85 74 67 70 72 74 78 85 92 96 96 90 82
79 84 87 92 93 88 77 79 80 84 90 88 89 86 85 80 81 79 70 71 70 63 53 61 71 77 74 77 79 82 84 68 66 76 73 70 71 74 78 89 94 98 88
81 90 88 86 90 91 84 82 86 91 91 84 88 80 82 81 65 64 52 48 54 50 47 64 74 70 72 75 80 80 75 66 68 78 75 75 74 73 70 69 81 98 94
79 82 87 82 84 92 95 89 90 91 84 87 84 82 85 75 59 61 70 67 45 58 59 76 76 76 74 75 80 80 76 75 78 82 79 76 72 67 64 63 67 70 93
88 81 86 84 83 81 82 90 89 86 89 83 88 85 80 83 84 81 71 57 51 69 57 58 73 62 75 80 86 77 74 74 83 90 85 75 71 66 63 68 87 84 81
84 93 85 81 85 89 95 86 89 87 84 84 81 84 77 86 92 91 46 42 50 50 62 66 66 83 82 80 78 79 78 78 93 92 82 75 75 71 69 56 77 98 94
87 82 80 76 86 87 98 100 94 87 78 70 80 72 63 59 42 47 51 40 50 57 63 58 63 71 82 84 88 87 84 92 94 91 84 83 82 78 70 61 56 65 93
87 92 78 73 70 82 87 96 82 75 70 77 68 68 58 40 40 48 56 47 50 53 62 67 65 72 87 93 96 91 88 94 98 97 96 88 83 74 56 57 56 59 59
69 75 75 74 77 74 72 74 68 74 67 65 55 54 46 40 42 47 55 75 89 61 66 77 73 83 86 87 96 99 98 96 92 94 95 92 83 79 66 59 57 56 61
68 72 78 82 70 84 82 75 73 75 76 71 48 42 42 42 46 49 54 67 99 97 94 95 78 89 92 98 99 98 98 87 89 92 96 93 86 84 72 87 93 87 92
69 72 78 80 76 81 74 74 79 74 63 56 47 45 42 44 47 50 56 69 87 99 96 95 88 90 86 94 100 100 100 98 100 100 99 98 88 75 70 92 97 96 97
63 68 73 70 75 80 78 78 72 67 61 54 51 46 47 48 50 53 57 68 77 99 99 98 94 94 89 89 98 100 100 100 100 99 99 99 93 76 74 74 93 95 91
58 69 74 73 75 78 81 77 75 63 58 53 48 49 50 52 52 56 62 68 78 95 100 99 99 87 86 99 96 100 100 100 100 100 99 98 76 82 81 73 85 95 95
52 74 84 85 84 89 86 76 63 58 52 50 51 53 54 55 56 61 67 75 81 100 100 100 96 94 99 100 100 100 100 100 100 100 99 96 83 87 83 82 89 98 96
62 81 90 88 79 70 65 63 58 55 54 54 55 54 54 54 59 66 79 88 98 97 97 96 93 92 90 97 100 100 100 100 100 99 98 89 89 87 84 80 86 94 95
72 73 73 72 70 65 62 60 58 57 56 56 54 51 52 58 65 75 96 99 98 99 99 99 98 97 96 96 97 100 100 100 100 99 94 92 90 85 83 83 87 89 89
74 72 70 68 65 63 60 58 57 58 56 53 50 49 51 61 84 99 100 99 99 99 98 100 100 99 99 99 99 100 99 100 98 99 92 92 87 81 74 68 72 74 78
77 76 72 69 64 61 60 60 59 57 54 53 52 49 56 86 97 99 99 99 100 99 97 99 99 99 99 99 100 99 100 99 99 73 82 83 77 63 42 27 20 17 18
78 77 73 69 67 67 65 61 57 54 54 56 56 54 76 95 98 98 98 99 100 92 94 100 99 99 99 99 99 99 98 95 67 54 32 20 19 19 19 20 16 14 12
81 79 75 72 71 68 63 60 57 55 54 57 64 86 99 99 99 99 99 98 67 40 20 20 43 67 86 79 76 75 60 50 49 35 24 21 16 14 15 16 16 15 16
82 78 76 75 74 71 67 63 60 61 61 69 81 96 99 99 99 98 100 88 42 18 15 14 14 15 18 29 39 40 38 32 34 21 18 16 15 15 15 17 18 22 24
84 84 82 80 80 77 74 70 65 63 60 71 87 100 100 99 99 100 92 31 17 17 18 17 17 16 15 17 17 14 19 18 16 13 11 14 14 16 21 22 24 28 29
Wind_Speed
14 14 14 13 13 13 12 12 11 10 9 8 6 5 5 4 4 4 3 2 3 4 6 7 9 11 10 9 10 9 7 8 8 8 7 6 6 7 7 5 4 2 1
14 14 14 13 12 12 13 13 12 11 10 9 8 6 6 5 5 5 3 3 4 7 9 10 12 12 10 11 14 14 11 11 12 12 9 8 8 8 7 6 5 4 3
15 14 14 13 13 12 13 13 13 12 10 9 8 6 6 6 4 4 6 6 8 9 12 11 13 14 14 11 13 13 14 11 11 11 12 12 12 9 8 7 5 5 4
18 17 15 13 13 14 13 13 13 12 10 9 7 6 4 4 6 7 9 12 13 15 16 15 15 17 16 13 13 13 13 14 14 11 11 11 12 12 12 10 8 6 6
18 18 15 12 13 14 14 14 13 12 10 8 6 4 5 7 10 12 13 15 16 18 17 16 15 16 15 13 14 14 15 14 14 13 11 10 9 11 14 14 12 9 8
20 20 17 13 14 14 15 15 13 11 9 6 4 7 9 12 13 16 17 18 18 17 17 18 17 17 13 13 13 17 14 16 15 14 12 11 10 10 11 15 15 13 11
20 23 19 16 16 15 14 15 14 12 9 7 7 9 13 17 15 15 11 10 13 16 11 13 12 14 13 13 14 15 14 16 17 14 13 12 11 11 12 12 12 19 17
29 27 26 23 20 17 17 17 16 13 11 9 10 11 9 12 3 4 19 14 16 10 9 9 10 12 17 15 12 14 13 15 16 16 15 16 14 13 14 15 16 14 19
32 31 25 25 25 24 20 19 19 16 13 11 9 9 5 4 18 12 16 18 11 12 13 13 13 13 11 13 14 15 17 19 18 16 15 14 14 15 14 14 13 13 11
29 27 24 22 23 22 20 19 18 16 13 10 11 15 14 16 10 12 15 17 17 17 14 14 15 12 13 16 18 19 19 20 18 14 14 16 17 19 20 19 16 13 14
17 19 22 24 19 15 20 16 11 11 9 10 10 12 15 18 17 18 21 21 18 18 19 17 15 17 21 20 20 19 17 17 15 15 15 18 18 21 23 18 16 19 21
20 20 19 17 14 16 20 8 9 13 15 21 22 27 19 19 18 17 19 24 24 24 20 19 18 16 16 20 19 17 18 18 15 16 18 18 19 21 22 19 17 16 18
20 21 17 16 15 19 22 18 24 20 15 16 16 17 20 21 20 20 19 19 19 22 21 20 16 15 16 19 20 18 19 15 16 20 18 19 19 20 22 18 14 14 15
18 19 20 20 18 20 16 19 18 20 22 18 17 19 21 21 20 20 20 17 16 18 18 17 16 15 14 17 17 17 20 17 19 21 21 19 20 20 17 7 4 2 5
16 18 18 16 15 18 19 20 21 21 19 18 19 19 18 18 19 19 19 17 16 10 13 14 14 15 15 16 17 20 18 19 18 20 19 20 21 21 12 10 7 7 8
16 17 17 17 20 23 23 22 22 20 19 19 19 18 18 18 19 18 18 19 18 17 17 15 16 14 17 19 18 19 21 19 19 19 17 20 24 14 12 14 14 12 12
16 17 19 21 22 23 23 20 19 18 19 18 18 18 18 19 18 18 18 18 18 17 18 20 18 18 18 19 18 19 19 18 20 18 18 25 20 13 12 12 15 12 9
14 17 20 23 22 21 21 19 19 20 19 18 19 18 18 19 17 17 17 17 17 16 18 18 19 17 14 14 18 20 22 19 16 17 22 23 16 14 13 11 8 9 9
13 14 15 17 18 18 18 20 20 19 18 18 18 18 19 18 18 17 17 17 16 17 18 20 20 20 20 19 19 19 18 17 17 20 23 16 12 12 13 10 10 10 11
13 15 16 18 19 18 18 18 17 18 17 18 19 19 19 19 19 18 18 17 16 18 20 21 22 22 21 21 21 21 21 19 18 22 17 13 11 11 13 11 13 13 13
15 16 17 18 17 17 17 17 17 17 18 19 19 20 21 21 17 16 16 17 18 19 20 20 20 20 20 19 19 19 20 18 19 19 14 14 13 13 13 13 14 15 15
16 18 18 19 18 17 17 17 17 17 17 17 17 17 16 14 13 13 14 15 17 20 21 21 20 19 17 17 18 18 17 18 18 13 14 15 14 14 14 14 13 14 14
17 18 17 17 16 16 16 16 16 16 15 16 16 16 12 11 11 12 13 14 14 13 15 16 16 15 15 15 16 17 17 16 15 11 9 9 11 12 12 12 12 11 10
20 20 19 18 18 17 16 16 15 14 14 15 14 13 9 10 11 11 11 11 10 9 8 9 12 14 15 14 13 13 13 12 11 12 11 11 11 11 11 10 10 8 7
21 20 19 18 18 17 16 15 14 13 14 13 12 11 10 11 12 12 11 11 10 10 9 8 8 8 9 10 11 10 10 10 12 11 10 10 9 7 8 9 9 8 8
21 21 21 20 19 18 17 17 16 14 13 13 13 13 13 13 13 13 11 10 10 10 9 9 7 7 7 8 8 9 9 9 10 8 10 9 7 5 4 8 9 8 9
Wind_Direction
192 197 198 201 208 214 214 215 215 215 215 216 216 217 233 240 244 259 257 275 320 324 327 336 333 329 326 329 333 333 341 323 309 307 314 330 334 337 346 349 332 323 267
201 203 209 215 224 225 223 221 217 213 217 221 226 230 237 250 263 269 264 282 311 314 310 308 306 302 309 315 315 320 326 330 328 317 301 296 299 306 319 330 329 307 273
216 218 221 229 229 224 220 220 218 217 218 223 227 240 250 264 254 279 294 289 294 290 292 293 296 294 291 288 293 302 311 322 321 313 301 290 287 290 284 288 293 288 271
228 224 224 227 223 227 226 220 219 222 223 226 235 250 256 273 288 289 287 293 285 289 279 276 283 291 295 289 279 286 295 310 309 308 303 296 276 276 285 279 274 271 273
225 226 225 223 228 229 229 229 227 227 227 228 226 239 275 285 286 290 287 293 290 295 290 283 279 277 282 278 268 276 282 299 302 301 301 306 302 283 272 277 281 268 268
229 229 228 226 230 230 228 227 227 226 223 218 251 279 282 291 287 293 292 292 294 295 295 285 274 273 273 263 269 269 271 295 300 297 300 302 299 294 288 271 265 275 265
224 226 225 233 237 238 232 231 228 228 216 238 261 281 285 286 287 291 300 302 302 304 305 292 276 281 259 258 259 262 268 291 294 284 287 288 286 284 287 285 276 256 259
242 227 231 229 237 234 227 224 221 216 227 236 257 288 302 309 308 285 303 294 308 296 302 286 272 280 277 271 257 257 278 287 287 282 280 283 286 285 286 281 273 269 251
256 248 243 240 236 237 229 218 215 219 219 236 256 266 292 272 309 308 308 308 301 282 294 284 283 282 269 268 254 264 283 285 284 282 279 279 284 291 290 277 270 266 256
261 253 249 241 238 242 239 227 226 224 224 236 257 266 271 274 287 298 301 303 296 298 290 285 289 268 264 266 264 271 280 286 274 270 272 280 289 297 299 289 253 246 249
266 255 248 253 246 260 234 212 205 213 242 256 258 280 293 287 281 279 290 298 295 293 292 292 280 268 261 261 266 270 273 270 265 266 273 281 292 299 302 291 273 251 243
265 241 240 240 253 239 241 221 243 253 256 261 268 279 291 289 287 282 282 290 295 301 297 290 282 272 265 264 261 267 267 268 271 267 268 270 284 314 310 298 283 261 254
254 248 231 239 235 246 263 264 249 241 240 244 251 263 272 280 282 280 279 278 282 291 295 295 296 284 259 259 265 263 266 268 273 269 278 276 296 316 315 310 292 265 252
255 248 244 244 248 260 237 230 222 236 247 253 263 272 277 275 277 281 280 277 280 285 291 286 289 286 277 265 257 264 253 261 272 271 271 273 292 310 310 321 340 232 248
249 247 251 243 238 225 218 219 229 235 246 254 271 272 268 272 276 278 279 276 269 274 283 283 270 271 270 282 268 264 261 264 268 273 264 272 292 301 283 236 239 226 225
248 245 240 226 213 219 219 224 228 235 247 260 266 266 270 272 276 278 276 272 270 263 261 263 272 269 274 274 270 263 267 264 267 267 274 280 299 283 267 248 242 250 247
242 235 229 226 226 229 228 230 236 245 258 266 270 271 274 277 277 277 273 270 266 260 262 271 274 281 273 268 265 270 265 268 268 265 274 296 294 271 256 254 244 239 248
246 237 230 230 230 228 232 236 245 255 262 264 266 271 273 274 276 273 271 268 267 257 261 266 271 270 269 268 271 255 263 260 256 272 292 298 279 257 252 256 247 232 230
237 230 224 220 218 222 231 241 249 257 258 265 271 274 274 275 273 268 262 260 258 254 260 264 269 267 269 270 269 270 259 254 266 286 296 280 261 246 252 250 247 235 231
223 217 217 219 225 232 239 243 246 256 267 272 275 278 277 272 266 265 262 260 255 251 254 259 264 266 266 266 263 259 257 262 274 279 275 259 250 247 250 250 248 247 241
232 232 231 231 232 234 237 246 255 263 270 273 275 275 267 262 256 252 256 256 256 255 254 256 258 260 263 260 257 258 257 262 270 276 260 255 257 259 262 257 252 252 249
239 235 233 232 231 234 242 250 258 265 271 277 279 283 273 263 262 261 259 260 257 250 250 254 258 261 261 255 252 253 256 263 270 261 251 253 256 258 260 260 258 253 253
247 242 238 236 235 239 246 255 261 265 270 277 285 293 275 256 247 255 258 260 259 252 248 249 251 251 250 247 246 248 253 254 249 244 252 254 252 255 256 258 261 262 256
236 233 232 233 238 241 246 254 262 270 276 277 281 292 259 241 245 253 256 250 251 253 256 253 248 244 243 246 243 243 245 244 244 249 255 260 257 254 251 248 250 250 244
241 236 238 239 243 242 248 256 266 269 273 268 267 271 248 239 243 244 240 239 244 249 252 251 245 241 239 238 238 240 241 240 246 254 250 252 252 246 240 241 244 244 239
243 240 240 242 242 243 249 256 262 263 262 259 264 259 238 234 236 239 228 233 238 242 245 249 249 245 240 238 241 243 237 240 244 251 242 226 231 224 229 243 244 244 240